FENGYUN 1C DEB, 36695

Orbit data source: Space-Track

FENGYUN 1C DEB, 36695 is space debris in SSO originally from a launch on Mon, 10 May 1999 UTC launched from the Taiyaun Space Center, China (TSC). Fengyun 1C debris stems from the Chinese weather satellite Fengyun-1C, which was intentionally destroyed by a Chinese anti-satellite missile in 2007. This event dramatically increased the amount of space debris, with thousands of trackable fragments posing hazards to satellites and human spaceflight. The Fengyun 1C debris cloud has become a focal point in discussions about space sustainability and the need for international regulations to prevent the creation of new debris.

Loading next visibility...
Identifier
36695, 1999-025DZR
Orbit
SSO
Country
Flag of CNCN / PRC
Related business
Manufacturer
Unknown
Mission
Spacecraft
Bus & Motor
Unknown
Mass
Unknown
Launch date (UTC)
1999-05-10 (27 years ago)
Launch vehicle
Unknown
Launch site
Taiyaun Space Center, China (TSC)
Object type
Payload
Rocket body
Debris
Shape & HBR
Unknown shape, 0.1 m
Radar Cross Section
Small (<0.1 m²)

Expand to show TLE details & history
Last TLE update: 6 hours ago

TLE from 6 hours ago
0 FENGYUN 1C DEB
1 36695U 99025DZR 26256.18679608  .00001236  00000-0  25146-3 0  9993
2 36695  98.2513 234.2219 0254806  16.2625 344.6555 14.44433475935298
Epoch: 2026-09-13T04:28Z
TLE epoch observation values (Epoch: 2026-09-13T04:28:59.181Z)
Latitude
-0.00003°
Longitude
174.79026°
Altitude
572.147 km
Speed
7.667 km/s
True Right ascension
15h 36m 53s
True Declination
0° 00' 00"
Sunlit
Object was in daylight at epoch
Visualization orbit readout
Latitude
Unknown
Longitude
Unknown
Altitude
Unknown
Speed
Unknown
Apparent Right ascension
Unknown
Apparent Declination
Unknown
Sunlit
N/A
Visualization observer readout
Local Sidereal Time
02:34:07
Azimuth
Unknown
Elevation
Unknown
Doppler factor
Unknown
Orbital elements
Apogee altitude
922.389 km
Perigee altitude
559.59 km
Semi-major axis
7,119.126 km
Eccentricity
0.02548
Inclination
98.2513°
RAAN
234.2219°
Arg. of periapsis
16.2625°
True anomaly
343.85841°
Mean anomaly
344.6555°
Eccentric anomaly
344.25945°
Mean motion
3.61329 °/min
Orbital period
99.63 mins
BSTAR
0.00025146
Loading maneuver chart data...
Computing Atmospheric mass density...

Documentation

Showing up to 5 results
|